Flag for Netherlands Weather past 2 weeks in Maastricht, Netherlands

Now
36 °F

Chilly.


Feels Like: 31 °F
Forecast: 40 / 62 °F
Wind: 6 mph from Northeast

Location: Maastricht Airport Zuid Limburg

Current Time: Apr 19, 2015 at 6:55:12 AM

Latest Report: Apr 19, 2015 at 6:25 AM


Visibility: N/A

Pressure: 30.18 "Hg

Humidity: 93%

Dew point: 34 °F

Location of MaastrichtLocation

Historic Weather in Maastricht — Graph

°F

Maastricht temperature yesterday

Maximum temperature yesterday: 57 °F (at 3:25 PM)
Minimum temperature yesterday: 34 °F (at 6:25 AM)
Average temperature yesterday: 47 °F

Past Weeks' High & Low Weather Summary

 TemperatureHumidityPressure
High75 °F (Apr 15, 3:55 PM)100% (Apr 7, 1:25 AM)30.63 "Hg (Apr 7, 1:25 AM)
Low32 °F (Apr 5, 7:55 AM)28% (Apr 10, 2:25 PM)29.92 "Hg (Apr 15, 7:55 PM)
Average50 °F67%30.25 "Hg
* Reported Apr 4 5:25 AM — Apr 19 5:55 AM, Maastricht, Weather by CustomWeather, © 2015

Note: Actual official high and low records may vary slightly from our data, if they occured in-between our weather recording intervals... More about our weather records

Advertising

Maastricht weather history for previous 24 hours

 ConditionsComfort  
Time TempWeatherWind HumidityBarometerVisibility
5:55 AM
Sun, Apr 19
37 °FChilly.8 mph93%30.18 "HgN/A
5:25 AM37 °FChilly.9 mph93%30.18 "HgN/A
4:55 AM39 °FChilly.10 mph87%30.18 "HgN/A
4:25 AM39 °FChilly.8 mph87%30.21 "HgN/A
3:55 AM39 °FChilly.8 mph81%30.21 "HgN/A
3:25 AM37 °FChilly.8 mph87%30.21 "HgN/A
2:55 AM39 °FChilly.7 mph81%30.21 "HgN/A
2:25 AM41 °FQuite cool.8 mph76%30.24 "HgN/A
1:55 AM41 °FQuite cool.9 mph76%30.24 "HgN/A
1:25 AM43 °FQuite cool.9 mph71%30.24 "HgN/A
12:55 AM45 °FQuite cool.10 mph66%30.24 "HgN/A
12:25 AM43 °FQuite cool.9 mph66%30.24 "HgN/A
11:55 PM
Sat, Apr 18
43 °FQuite cool.7 mph61%30.24 "HgN/A
11:25 PM46 °FCool.6 mph57%30.27 "HgN/A
10:55 PM45 °FQuite cool.6 mph57%30.27 "HgN/A
10:25 PM46 °FCool.5 mph53%30.27 "HgN/A
9:55 PM48 °FCool.5 mph54%30.27 "HgN/A
9:25 PM48 °FCool.5 mph50%30.24 "HgN/A
8:55 PM48 °FCool.6 mph50%30.24 "HgN/A
8:25 PM50 °FCool.8 mph47%30.24 "HgN/A
7:55 PM54 °FCool.10 mph41%30.24 "HgN/A
7:25 PM55 °FRefreshingly cool.10 mph41%30.24 "HgN/A
6:55 PM55 °FRefreshingly cool.10 mph38%30.24 "HgN/A
6:25 PM55 °FRefreshingly cool.13 mph41%30.24 "HgN/A
5:55 PM55 °FRefreshingly cool.13 mph38%30.24 "HgN/A
5:25 PM57 °FRefreshingly cool.15 mph36%30.27 "HgN/A
4:55 PM57 °FRefreshingly cool.12 mph39%30.27 "HgN/A
4:25 PM57 °FRefreshingly cool.12 mph39%30.27 "HgN/A
3:55 PM55 °FRefreshingly cool.10 mph41%30.30 "HgN/A
3:25 PM57 °FClear.12 mph39%30.30 "HgN/A
2:55 PM55 °FClear.14 mph41%30.30 "HgN/A
2:25 PM55 °FClear.15 mph41%30.30 "HgN/A
1:55 PM55 °FRefreshingly cool.14 mph41%30.30 "HgN/A
1:25 PM54 °FCool.16 mph44%30.30 "HgN/A
12:55 PM52 °FCool.16 mph44%30.33 "HgN/A
12:25 PM54 °FScattered clouds.15 mph44%30.33 "HgN/A
11:55 AM54 °FPassing clouds.16 mph47%30.33 "HgN/A
11:25 AM52 °FPassing clouds.13 mph50%30.33 "HgN/A
10:55 AM50 °FCool.12 mph62%30.33 "HgN/A
10:25 AM46 °FCool.8 mph71%30.33 "HgN/A
9:55 AM45 °FQuite cool.9 mph76%30.33 "HgN/A
9:25 AM43 °FQuite cool.9 mph81%30.30 "HgN/A
8:55 AM43 °FQuite cool.7 mph76%30.30 "HgN/A
8:25 AM41 °FQuite cool.6 mph81%30.30 "HgN/A
7:55 AM39 °FChilly.5 mph87%30.30 "HgN/A
7:25 AM37 °FChilly.6 mph87%30.27 "HgN/A
6:55 AM36 °FChilly.6 mph87%30.27 "HgN/A
6:25 AM34 °FChilly.6 mph93%30.27 "HgN/A
Weather by CustomWeather, © 2015

See weather overviewHow to use our weather pages